[[{"header":{"parameterUnit":"m.s-1","parameterCategory":2,"la1":30.2991,"la2":30.254,"lo1":-89.0895,"lo2":-89.0444,"dy":0.0017,"dx":0.0017,"nx":28,"ny":28,"refTime":"2025-12-21T03:00:00:Z","depth":"0","parameterNumber":2,"parameterNumberName":"U-component_of_CURRENTS"},"data":[0,0,0,0,0,0,0,0,0,0,0,0,0,0,0,0,0,0,0,0,0,0,0,0,0,0,0,0,0,0,0,0,0,0,0,0,0,0,0,0,0,0,0,0,0,0,0,0,0,0,0,0,0,0,0,0,0,0,0.2054,0.2054,0,0.2048,0.2048,0.2048,0.2037,0.2037,0.2037,0.2037,0.2011,0.201,0.2009,0,0,0,0,0,0,0,0,0,0,0,0,0,0.2073,0.2073,0.2054,0.2054,0.2054,0.2048,0.2048,0.2048,0.2037,0.2037,0.2037,0.2037,0.2011,0.201,0.2009,0,0,0,0,0,0,0,0,0,0,0,0,0,0.2064,0.2073,0.2054,0.2049,0.2049,0.2048,0.2048,0.2048,0.2037,0.2037,0.2037,0.2037,0.2011,0.201,0.2009,0.2004,0,0,0.2006,0.2006,0,0,0,0,0,0,0,0,0.2065,0.2063,0.205,0.205,0.2049,0.2045,0.2045,0.2033,0.2037,0.2039,0.2037,0.2037,0.2022,0.202,0.2016,0.2003,0.2002,0.2006,0.2006,0.2005,0.2005,0,0,0,0,0,0,0,0.2065,0.2064,0.205,0.205,0.205,0.2054,0.2052,0.2043,0.2029,0.2039,0.2039,0.2041,0.2021,0.2017,0.2016,0.2001,0.2006,0.2005,0.2005,0.2004,0.202,0.2021,0,0,0,0,0,0,0.2069,0.2064,0.205,0.205,0.2059,0.2054,0.2052,0.2045,0.203,0.2028,0.2041,0.2041,0.2019,0.2017,0.2015,0.2036,0.2005,0.2004,0.2004,0.2019,0.2021,0.2022,0,0,0,0,0,0,0.2069,0.2067,0.205,0.2059,0.2057,0.2054,0.2046,0.2045,0.2044,0.2032,0.2029,0.2042,0.2019,0.2016,0.2017,0.2033,0.2004,0.2003,0.2018,0.202,0.2021,0.2059,0,0,0,0,0,0,0.207,0.2067,0.2065,0.2059,0.2057,0.2054,0.2046,0.2045,0.2046,0.2046,0.2032,0.2029,0.2019,0.2019,0.2016,0.2031,0.2002,0.2017,0.2019,0.2021,0.2057,0.2062,0.2066,0,0,0,0,0,0.207,0.2065,0.2064,0.2063,0.2053,0.2055,0.2054,0.2051,0.2047,0.2049,0.2044,0.203,0.2029,0.2018,0.2015,0.2031,0.2016,0.2018,0.2021,0.2055,0.2061,0.2066,0,0,0,0,0,0,0.2067,0.2064,0.2062,0.2055,0.2059,0.2054,0.2054,0.2053,0.2051,0.205,0.2037,0.2034,0.2044,0.2033,0.2021,0.2043,0.2023,0.2024,0.205,0.2055,0.206,0.2066,0.2001,0,0,0,0,0,0.2068,0.2064,0.2064,0.2059,0.2061,0.2059,0.206,0.2059,0.2057,0.2055,0.2047,0.2045,0.2051,0.2049,0.2048,0.2053,0.2061,0.2064,0.2069,0.2073,0.2076,0.2107,0.2115,0.2029,0.2029,0.2029,0,0,0.2064,0.2063,0.2061,0.206,0.2059,0.2063,0.2058,0.2062,0.2069,0.2053,0.2057,0.2059,0.2057,0.2069,0.2072,0.206,0.2104,0.2076,0.2079,0.2081,0.211,0.2119,0.2126,0.2031,0.2031,0.203,0,0,0.2061,0.2056,0.2056,0.206,0.2066,0.2068,0.2071,0.2071,0.2076,0.2084,0.2082,0.2099,0.209,0.2104,0.2107,0.2138,0.213,0.2134,0.2158,0.2189,0.2196,0.2202,0.2234,0.2243,0.2134,0.2134,0.2134,0,0.2061,0.2055,0.2057,0.2061,0.2064,0.2071,0.2074,0.2083,0.2085,0.2092,0.209,0.2112,0.2113,0.214,0.2156,0.215,0.2161,0.2135,0.2195,0.2201,0.2207,0.2239,0.2248,0.2136,0.2136,0.2136,0.2136,0,0.2059,0.2057,0.2057,0.2064,0.2068,0.2073,0.2086,0.2094,0.2102,0.2113,0.2142,0.2156,0.2171,0.218,0.2177,0.222,0.2214,0.2199,0.2179,0.2218,0.2249,0.2258,0.2139,0.2138,0.2138,0.2137,0,0,0.2053,0.2056,0.2056,0.2061,0.207,0.2076,0.2089,0.2106,0.2133,0.2142,0.2187,0.22,0.2215,0.2222,0.223,0.2259,0.2321,0.2247,0.2247,0.2278,0.2389,0.2338,0.2343,0.2311,0.2313,0.2314,0.2397,0,0.2052,0.2053,0.2057,0.2065,0.2067,0.2079,0.21,0.2119,0.2146,0.2196,0.2221,0.227,0.223,0.2263,0.2279,0.2324,0.2345,0.23,0.2347,0.2349,0.2298,0.2352,0.2188,0.2243,0.2406,0.2407,0.2408,0,0.2048,0.205,0.205,0.2072,0.2077,0.2089,0.2125,0.215,0.2212,0.2243,0.2276,0.231,0.2365,0.2341,0.2393,0.2364,0.2373,0.2396,0.2399,0.2343,0.2315,0.2229,0.2253,0.2153,0.2422,0.2421,0.242,0,0.2037,0.2047,0.2045,0.2049,0.2077,0.2086,0.211,0.2157,0.2194,0.2288,0.2334,0.2385,0.2432,0.2453,0.2475,0.2445,0.2545,0.251,0.2467,0.2464,0.233,0.2312,0.2259,0.2543,0.2543,0.2542,0.2542,0,0.203,0.2035,0.2043,0.2045,0.2072,0.209,0.2136,0.2176,0.225,0.2306,0.236,0.2412,0.246,0.2511,0.252,0.2525,0.257,0.2486,0.2486,0.2339,0.2322,0.2231,0.2192,0.2546,0.2545,0.2544,0.2544,0,0.2021,0.202,0.2033,0.2056,0.2065,0.2091,0.2146,0.2189,0.2254,0.2336,0.2373,0.245,0.2511,0.2555,0.2621,0.2572,0.2505,0.2589,0.2418,0.2394,0.2233,0.2202,0.211,0.2034,0.2556,0.2556,0.2555,0,0.2016,0.2014,0.2039,0.2057,0.2069,0.2103,0.2133,0.219,0.223,0.234,0.2381,0.2472,0.251,0.2588,0.2551,0.257,0.2479,0.242,0.2324,0.2214,0.218,0.2104,0.2043,0.2171,0.2167,0.2164,0.2162,0,0.2027,0.2035,0.206,0.2067,0.2093,0.211,0.2149,0.2177,0.2247,0.2299,0.2363,0.2411,0.2464,0.2391,0.2411,0.2399,0.2252,0.2357,0.2279,0.1907,0.1784,0.1713,0.2141,0.2135,0.2137,0.2139,0.2141,0.2142,0.2059,0.2071,0.2085,0.209,0.211,0.2096,0.2082,0.212,0.2148,0.2177,0.2275,0.2271,0.2225,0.2213,0.2202,0.2028,0.2062,0.1905,0.1892,0.184,0.1703,0.208,0.2046,0.2048,0.205,0.2051,0.2053,0,0.2075,0.2082,0.2099,0.2085,0.2062,0.2067,0.2071,0.2027,0.2008,0.2052,0.2069,0.1982,0.1879,0.1844,0.1676,0.1561,0.1485,0.1498,0.1334,0.131,0.1667,0.1583,0.14,0.14,0.14,0.14,0.14,0.14,0.2096,0.2098,0.2078,0.202,0.1997,0.1909,0.188,0.1831,0.1819,0.1728,0.1655,0.1661,0.1594,0.1408,0.1229,0.1197,0.1076,0.0983,0.1035,0.1254,0.129,0.1324,0.1235,0.0982,0.0981,0.0572,0.0569,0.0566]},{"header":{"parameterUnit":"m.s-1","parameterCategory":2,"la1":30.2991,"la2":30.254,"lo1":-89.0895,"lo2":-89.0444,"dy":0.0017,"dx":0.0017,"nx":28,"ny":28,"refTime":"2025-12-21T03:00:00:Z","depth":"0","parameterNumber":3,"parameterNumberName":"V-component_of_CURRENTS"},"data":[0,0,0,0,0,0,0,0,0,0,0,0,0,0,0,0,0,0,0,0,0,0,0,0,0,0,0,0,0,0,0,0,0,0,0,0,0,0,0,0,0,0,0,0,0,0,0,0,0,0,0,0,0,0,0,0,0,0,0.0035,0.0035,0,0.0023,0.0023,0.0023,0.0007,0.0007,0.0007,0.0007,-0.0013,-0.0013,-0.0014,0,0,0,0,0,0,0,0,0,0,0,0,0,0.0038,0.0038,0.0035,0.0035,0.0035,0.0023,0.0023,0.0023,0.0008,0.0007,0.0007,0.0007,-0.0013,-0.0013,-0.0014,0,0,0,0,0,0,0,0,0,0,0,0,0,0.0032,0.0038,0.0035,0.0025,0.0025,0.0023,0.0023,0.0023,0.0008,0.0007,0.0007,0.0006,-0.0013,-0.0013,-0.0014,-0.0008,0,0,-0.0015,-0.0015,0,0,0,0,0,0,0,0,0.0033,0.0032,0.0027,0.0026,0.0025,0.0016,0.0017,0.0012,0.0008,0.0014,0.0007,0.0006,-0.0004,-0.0005,-0.0006,-0.0009,-0.001,-0.0015,-0.0015,-0.0015,-0.0016,0,0,0,0,0,0,0,0.0033,0.0033,0.003,0.0027,0.0026,0.002,0.0019,0.0016,0.0007,0.0013,0.0012,0.0011,-0.0004,-0.0006,-0.0007,-0.001,-0.0015,-0.0015,-0.0016,-0.0016,-0.0013,-0.0012,0,0,0,0,0,0,0.0035,0.0033,0.0031,0.003,0.0028,0.002,0.0019,0.002,0.0008,0.0005,0.0011,0.001,-0.0005,-0.0006,-0.0007,0.0009,-0.0015,-0.0016,-0.0016,-0.0013,-0.0012,-0.0012,0,0,0,0,0,0,0.0035,0.0035,0.0031,0.0031,0.003,0.0021,0.0022,0.002,0.0017,0.0006,0.0004,0.0011,-0.0005,-0.0007,-0.0006,0.0008,-0.0016,-0.0016,-0.0013,-0.0013,-0.0012,0.0036,0,0,0,0,0,0,0.0036,0.0035,0.0037,0.0031,0.003,0.0037,0.0022,0.002,0.0017,0.0016,0.0005,0.0003,-0.0005,-0.0005,-0.0006,0.0007,-0.0017,-0.0014,-0.0013,-0.0012,0.0034,0.0038,0.0041,0,0,0,0,0,0.0036,0.0045,0.0037,0.0037,0.0033,0.0038,0.0037,0.0028,0.0018,0.0023,0.0014,0.0003,-0.0002,-0.0005,-0.0006,0.0007,-0.0014,-0.0013,-0.0013,0.0032,0.0037,0.0041,0,0,0,0,0,0,0.0052,0.0044,0.0035,0.0042,0.0041,0.0035,0.0039,0.003,0.0027,0.0024,0.001,0.0008,0.0012,0.0002,-0.0001,0.0008,-0.0011,-0.001,0.0023,0.0028,0.0032,0.0047,-0.0017,0,0,0,0,0,0.0055,0.0057,0.005,0.0056,0.0055,0.0046,0.0045,0.004,0.0036,0.0034,0.0026,0.0017,0.0015,0.0015,0.0009,0.0018,0.0011,0.0023,0.0027,0.0031,0.0041,0.0048,0.0054,-0.001,-0.001,-0.001,0,0,0.0063,0.0059,0.006,0.0059,0.0055,0.0068,0.0045,0.0049,0.0061,0.0033,0.0046,0.003,0.0018,0.0027,0.0029,0.0021,0.0043,0.0031,0.0035,0.0044,0.005,0.0056,0.0062,-0.0009,-0.0009,-0.0009,0,0,0.0087,0.0077,0.0088,0.0089,0.0086,0.0083,0.0085,0.008,0.0079,0.0087,0.0069,0.0065,0.0059,0.0058,0.0056,0.0077,0.006,0.0069,0.0106,0.0113,0.0118,0.0123,0.0115,0.0118,0.0074,0.0074,0.0074,0,0.0099,0.011,0.0093,0.0107,0.0114,0.0093,0.0114,0.0113,0.011,0.012,0.0097,0.01,0.0078,0.0103,0.01,0.0088,0.0082,0.0091,0.0119,0.0124,0.0128,0.0118,0.0122,0.0076,0.0076,0.0076,0.0076,0,0.013,0.0141,0.015,0.0159,0.0166,0.018,0.0176,0.0183,0.0174,0.0175,0.019,0.0164,0.0169,0.0155,0.0129,0.0152,0.0134,0.0122,0.0111,0.0138,0.0125,0.0128,0.008,0.0079,0.0078,0.0078,0,0,0.0156,0.0169,0.0174,0.0192,0.0195,0.021,0.0229,0.025,0.0282,0.0262,0.0305,0.0271,0.0256,0.025,0.0222,0.0217,0.0222,0.018,0.0179,0.0177,0.0228,0.0224,0.0226,0.0216,0.0217,0.0218,0.0203,0,0.0189,0.0227,0.0223,0.027,0.0292,0.0285,0.0314,0.0329,0.0336,0.0373,0.0346,0.0373,0.0294,0.0305,0.0283,0.0248,0.0233,0.0226,0.0197,0.0196,0.0195,0.0231,0.0241,0.0231,0.0206,0.0206,0.0207,0,0.0223,0.0246,0.0291,0.0336,0.0346,0.0375,0.0425,0.0448,0.0482,0.049,0.0499,0.0486,0.0477,0.0412,0.0356,0.0355,0.029,0.0252,0.025,0.0236,0.0199,0.0201,0.0237,0.018,0.0211,0.0211,0.021,0,0.0258,0.03,0.034,0.0352,0.0393,0.0423,0.0453,0.049,0.0536,0.0579,0.0625,0.0598,0.0607,0.0531,0.0429,0.0398,0.0375,0.0325,0.026,0.0257,0.0256,0.0253,0.0243,0.0288,0.0288,0.0288,0.0288,0,0.03,0.0336,0.0365,0.039,0.0465,0.0471,0.0558,0.0585,0.0646,0.0722,0.0692,0.0748,0.0637,0.0607,0.0489,0.0395,0.0419,0.0279,0.0264,0.0271,0.0269,0.0211,0.0169,0.0287,0.0288,0.0288,0.0288,0,0.0343,0.035,0.041,0.046,0.0485,0.0544,0.0638,0.0703,0.0744,0.0847,0.0872,0.0874,0.0833,0.0722,0.0613,0.0487,0.0356,0.035,0.0358,0.0344,0.0213,0.0173,0.0149,0.0092,0.0272,0.0272,0.0272,0,0.0373,0.0401,0.0471,0.052,0.0551,0.0634,0.07,0.0755,0.0827,0.0926,0.0986,0.099,0.1,0.0848,0.0646,0.0472,0.0381,0.0355,0.029,0.0225,0.017,0.0144,0.0095,0.0296,0.0296,0.0296,0.0297,0,0.0445,0.046,0.0515,0.0597,0.0673,0.0753,0.0847,0.0915,0.0984,0.1072,0.1158,0.1182,0.1054,0.0894,0.0669,0.0535,0.0319,0.0351,0.0292,0.0203,0.0168,0.01,0.0271,0.0298,0.0298,0.0298,0.0298,0.0298,0.0511,0.0558,0.0613,0.0688,0.0767,0.0839,0.0902,0.0998,0.1103,0.1205,0.1252,0.1291,0.1098,0.0793,0.0636,0.0343,0.0312,0.0234,0.0194,0.0175,0.0122,0.0292,0.0298,0.0298,0.0298,0.0298,0.0298,0,0.058,0.0618,0.0698,0.0771,0.083,0.086,0.0971,0.1019,0.112,0.1244,0.1314,0.1239,0.1036,0.0785,0.0413,0.0229,0.0127,0.0127,0.009,0.0044,0.021,0.0212,0.0192,0.0192,0.0192,0.0192,0.0192,0.0192,0.0624,0.0687,0.07,0.0785,0.0833,0.0892,0.0936,0.1018,0.1106,0.1182,0.1201,0.1231,0.1031,0.0577,0.0246,0.0144,-0.0001,-0.0031,-0.0117,0.0001,0.0008,0.0014,0.0008,-0.0055,-0.0055,-0.0267,-0.0269,-0.027]}],[{"header":{"parameterUnit":"m.s-1","parameterCategory":2,"la1":30.2991,"la2":30.254,"lo1":-89.0895,"lo2":-89.0444,"dy":0.0017,"dx":0.0017,"nx":28,"ny":28,"refTime":"2025-12-21T03:00:00:Z","depth":"2","parameterNumber":2,"parameterNumberName":"U-component_of_CURRENTS"},"data":[0,0,0,0,0,0,0,0,0,0,0,0,0,0,0,0,0,0,0,0,0,0,0,0,0,0,0,0,0,0,0,0,0,0,0,0,0,0,0,0,0,0,0,0,0,0,0,0,0,0,0,0,0,0,0,0,0,0,0.1829,0.1829,0,0.1839,0.1839,0.184,0.1845,0.1845,0.1845,0.1844,0.186,0.1861,0.1861,0,0,0,0,0,0,0,0,0,0,0,0,0,0.1831,0.1831,0.1829,0.1829,0.1829,0.1839,0.1839,0.184,0.1845,0.1845,0.1845,0.1844,0.186,0.186,0.1861,0,0,0,0,0,0,0,0,0,0,0,0,0,0.1836,0.1831,0.1829,0.1831,0.1831,0.1839,0.1839,0.184,0.1845,0.1845,0.1845,0.1844,0.186,0.186,0.1861,0.1872,0,0,0.1864,0.1864,0,0,0,0,0,0,0,0,0.1836,0.1837,0.1831,0.1831,0.1831,0.1839,0.1846,0.185,0.1845,0.1842,0.1844,0.1844,0.1852,0.1854,0.1859,0.1873,0.1873,0.1864,0.1865,0.1865,0.1865,0,0,0,0,0,0,0,0.1836,0.1836,0.1835,0.1831,0.1831,0.1837,0.1838,0.1847,0.185,0.1842,0.1842,0.184,0.1853,0.1858,0.1859,0.1873,0.1864,0.1865,0.1865,0.1866,0.1922,0.1923,0,0,0,0,0,0,0.183,0.1836,0.1835,0.1835,0.1831,0.1837,0.1838,0.1838,0.185,0.1851,0.184,0.184,0.1857,0.1858,0.186,0.1907,0.1865,0.1866,0.1866,0.1921,0.1922,0.1923,0,0,0,0,0,0,0.183,0.183,0.1834,0.1834,0.1835,0.1837,0.1838,0.1839,0.1857,0.1848,0.1849,0.1859,0.1857,0.1859,0.1874,0.1906,0.1866,0.1867,0.192,0.1921,0.1923,0.1979,0,0,0,0,0,0,0.183,0.183,0.1834,0.1834,0.1834,0.1847,0.1838,0.1839,0.1854,0.1855,0.1864,0.1864,0.1857,0.1872,0.1875,0.1907,0.1868,0.1919,0.1921,0.1922,0.1976,0.1982,0.1988,0,0,0,0,0,0.183,0.183,0.1835,0.1835,0.1839,0.1847,0.1849,0.1851,0.1855,0.1867,0.187,0.1865,0.1886,0.1874,0.1876,0.1909,0.1918,0.192,0.1922,0.1973,0.1981,0.1987,0,0,0,0,0,0,0.1833,0.183,0.1835,0.1835,0.1847,0.1848,0.1859,0.1863,0.1876,0.1879,0.1874,0.1875,0.1901,0.1895,0.1882,0.193,0.1903,0.1906,0.1941,0.1948,0.1954,0.1946,0.1868,0,0,0,0,0,0.1836,0.1834,0.1841,0.1843,0.1854,0.1863,0.187,0.1872,0.1879,0.1885,0.1886,0.1894,0.1911,0.1921,0.1925,0.1952,0.1957,0.1975,0.1981,0.1986,0.1981,0.2016,0.2025,0.1931,0.193,0.193,0,0,0.1838,0.1835,0.1836,0.1844,0.1857,0.1875,0.1868,0.1883,0.1896,0.1885,0.1905,0.1912,0.1921,0.1948,0.196,0.1949,0.202,0.1989,0.1994,0.1985,0.202,0.2029,0.2037,0.1932,0.1932,0.1931,0,0,0.1837,0.1845,0.1849,0.1861,0.1877,0.1887,0.1897,0.1908,0.1916,0.1933,0.1934,0.1957,0.1973,0.1987,0.1999,0.204,0.2047,0.2051,0.208,0.2116,0.2124,0.2131,0.2166,0.2176,0.2058,0.2058,0.2058,0,0.1842,0.1849,0.1854,0.1865,0.1878,0.1898,0.1918,0.1932,0.1941,0.1949,0.1943,0.1985,0.1991,0.2039,0.2053,0.2055,0.2075,0.2055,0.2124,0.2131,0.2137,0.2172,0.2182,0.2061,0.2061,0.2061,0.206,0,0.1851,0.1861,0.1869,0.1892,0.1907,0.1928,0.1948,0.1962,0.1976,0.1986,0.2024,0.2038,0.2063,0.2079,0.2079,0.2138,0.2139,0.2126,0.2107,0.215,0.2184,0.2193,0.2065,0.2064,0.2064,0.2063,0,0,0.1847,0.1872,0.1874,0.1894,0.1925,0.194,0.1965,0.1996,0.2033,0.2037,0.2089,0.2107,0.212,0.2133,0.2151,0.2182,0.2252,0.2178,0.2178,0.2214,0.234,0.2252,0.2254,0.2258,0.226,0.2261,0.2352,0,0.1861,0.1883,0.1891,0.1927,0.1952,0.1972,0.2002,0.2026,0.206,0.2115,0.2132,0.2192,0.2144,0.2191,0.2205,0.2245,0.2276,0.2228,0.229,0.2291,0.221,0.2262,0.2046,0.21,0.2361,0.2362,0.2363,0,0.1868,0.1884,0.1918,0.1957,0.1973,0.2001,0.2062,0.2092,0.2158,0.2184,0.2224,0.226,0.2309,0.2281,0.2326,0.2302,0.232,0.2339,0.2343,0.2242,0.222,0.2095,0.2108,0.2379,0.2378,0.2377,0.2376,0,0.1872,0.1901,0.1932,0.1946,0.1997,0.2019,0.2056,0.2114,0.2152,0.2256,0.2305,0.2351,0.2401,0.2416,0.2421,0.2396,0.2482,0.2454,0.239,0.2385,0.22,0.2175,0.2497,0.2497,0.2497,0.2497,0.2496,0,0.1892,0.1909,0.1941,0.1966,0.201,0.2041,0.2116,0.215,0.2235,0.2294,0.2353,0.24,0.2438,0.2481,0.2473,0.2449,0.2515,0.2401,0.2402,0.2214,0.2191,0.242,0.241,0.25,0.2499,0.2499,0.2498,0,0.1898,0.1918,0.1944,0.1995,0.2018,0.2049,0.2135,0.2194,0.2266,0.2353,0.2393,0.2458,0.2489,0.252,0.257,0.2508,0.2517,0.2499,0.2275,0.2246,0.2388,0.238,0.2436,0.2434,0.2432,0.243,0.2429,0,0.1898,0.192,0.1962,0.1986,0.2017,0.2077,0.213,0.2201,0.2258,0.2359,0.2396,0.2471,0.2463,0.2493,0.2443,0.2429,0.2492,0.2229,0.2122,0.2385,0.2382,0.2377,0.2372,0.1918,0.1912,0.1908,0.1904,0,0.192,0.1935,0.198,0.1999,0.2046,0.2092,0.2167,0.2198,0.2282,0.2313,0.2337,0.2342,0.2363,0.2215,0.2213,0.2173,0.2206,0.2135,0.2489,0.1954,0.19,0.1896,0.1907,0.1864,0.1868,0.1871,0.1874,0.1875,0.1937,0.1942,0.199,0.1999,0.2059,0.2082,0.2096,0.2147,0.216,0.2127,0.2178,0.2076,0.2067,0.1908,0.1851,0.1827,0.1976,0.1869,0.1882,0.19,0.1811,0.1755,0.1677,0.1679,0.1682,0.1684,0.1686,0,0.1927,0.1942,0.1977,0.1976,0.2017,0.2065,0.2103,0.2053,0.2007,0.1938,0.1865,0.1622,0.1499,0.1528,0.1416,0.1411,0.1396,0.1356,0.1309,0.135,0.1385,0.1269,0.0992,0.099,0.0988,0.0986,0,0,0.1922,0.193,0.1917,0.1926,0.1958,0.1961,0.1967,0.1866,0.1781,0.1543,0.1414,0.1376,0.1449,0.1183,0.115,0.1054,0.1195,0.1011,0.1565,0.1549,0.1582,0.1677,0.1542,0,0,0,0,0]},{"header":{"parameterUnit":"m.s-1","parameterCategory":2,"la1":30.2991,"la2":30.254,"lo1":-89.0895,"lo2":-89.0444,"dy":0.0017,"dx":0.0017,"nx":28,"ny":28,"refTime":"2025-12-21T03:00:00:Z","depth":"2","parameterNumber":3,"parameterNumberName":"V-component_of_CURRENTS"},"data":[0,0,0,0,0,0,0,0,0,0,0,0,0,0,0,0,0,0,0,0,0,0,0,0,0,0,0,0,0,0,0,0,0,0,0,0,0,0,0,0,0,0,0,0,0,0,0,0,0,0,0,0,0,0,0,0,0,0,0.0008,0.0008,0,-0.0001,-0.0001,-0.0001,-0.0015,-0.0015,-0.0015,-0.0015,-0.0037,-0.0038,-0.0038,0,0,0,0,0,0,0,0,0,0,0,0,0,0.0009,0.0009,0.0008,0.0008,0.0008,-0.0001,-0.0001,-0.0001,-0.0015,-0.0015,-0.0015,-0.0016,-0.0037,-0.0038,-0.0038,0,0,0,0,0,0,0,0,0,0,0,0,0,0.0005,0.0009,0.0008,0.0001,-0.0,-0.0001,-0.0001,-0.0001,-0.0015,-0.0015,-0.0015,-0.0016,-0.0037,-0.0038,-0.0038,-0.0036,0,0,-0.004,-0.004,0,0,0,0,0,0,0,0,0.0005,0.0005,0.0002,0.0001,0.0,-0.0007,-0.0009,-0.0013,-0.0015,-0.001,-0.0015,-0.0016,-0.0028,-0.0029,-0.0031,-0.0037,-0.0038,-0.004,-0.004,-0.0041,-0.0041,0,0,0,0,0,0,0,0.0006,0.0005,0.0004,0.0002,0.0001,-0.0004,-0.0005,-0.001,-0.0018,-0.001,-0.0011,-0.0011,-0.0028,-0.003,-0.0031,-0.0038,-0.004,-0.0041,-0.0041,-0.0041,-0.004,-0.004,0,0,0,0,0,0,0.0008,0.0006,0.0005,0.0004,0.0003,-0.0004,-0.0005,-0.0004,-0.0017,-0.0019,-0.0011,-0.0012,-0.0029,-0.0031,-0.0032,-0.0021,-0.0041,-0.0041,-0.0042,-0.004,-0.004,-0.0039,0,0,0,0,0,0,0.0008,0.0008,0.0005,0.0005,0.0004,-0.0003,-0.0003,-0.0005,-0.0008,-0.0018,-0.002,-0.0013,-0.0029,-0.0031,-0.0031,-0.0022,-0.0042,-0.0042,-0.0041,-0.004,-0.004,-0.0005,0,0,0,0,0,0,0.0008,0.0008,0.0008,0.0005,0.0004,0.0008,-0.0003,-0.0004,-0.0008,-0.0009,-0.002,-0.0023,-0.003,-0.003,-0.0032,-0.0024,-0.0043,-0.0041,-0.004,-0.004,-0.0006,-0.0003,-0.0,0,0,0,0,0,0.0009,0.0013,0.0008,0.0008,0.0005,0.0008,0.0008,0.0001,-0.0008,-0.0005,-0.0011,-0.0022,-0.0027,-0.003,-0.0032,-0.0024,-0.0042,-0.0041,-0.004,-0.0008,-0.0004,-0.0,0,0,0,0,0,0,0.0014,0.0012,0.0007,0.001,0.001,0.0006,0.0007,0.0001,-0.0002,-0.0005,-0.0017,-0.0019,-0.0015,-0.0025,-0.0029,-0.0022,-0.0037,-0.0036,-0.0011,-0.0008,-0.0005,0.0007,-0.0043,0,0,0,0,0,0.0015,0.0017,0.0015,0.0017,0.0017,0.0011,0.001,0.0007,0.0004,0.0002,-0.0004,-0.0011,-0.0013,-0.0015,-0.0018,-0.0014,-0.002,-0.0011,-0.0008,-0.0005,0.0003,0.0008,0.0012,-0.0037,-0.0037,-0.0037,0,0,0.0016,0.0017,0.0017,0.0019,0.0016,0.0025,0.0009,0.0012,0.0024,0.0,0.0011,0.0,-0.0009,-0.0003,-0.0003,-0.001,0.0004,-0.0004,-0.0001,0.0005,0.0009,0.0014,0.0018,-0.0036,-0.0036,-0.0036,0,0,0.0028,0.0022,0.003,0.0033,0.0033,0.0034,0.0035,0.0034,0.0035,0.0042,0.0031,0.0028,0.0021,0.0022,0.0019,0.0037,0.002,0.003,0.0056,0.0061,0.0065,0.0069,0.0059,0.0062,0.0032,0.0032,0.0032,0,0.003,0.004,0.0032,0.0043,0.0052,0.0039,0.0056,0.0057,0.0058,0.0066,0.005,0.0052,0.0036,0.0053,0.0054,0.0045,0.0039,0.0043,0.0065,0.0069,0.0072,0.0062,0.0065,0.0034,0.0033,0.0033,0.0033,0,0.0049,0.0057,0.0063,0.0075,0.0084,0.0094,0.0099,0.0107,0.0104,0.0105,0.0117,0.01,0.0103,0.0093,0.0076,0.0093,0.0078,0.0069,0.0058,0.0079,0.0067,0.0069,0.0036,0.0036,0.0035,0.0035,0,0,0.0057,0.0073,0.0076,0.0092,0.0103,0.0117,0.0138,0.0157,0.0182,0.0168,0.0205,0.0178,0.0165,0.0162,0.0142,0.0138,0.0142,0.0111,0.0111,0.0105,0.0143,0.0099,0.0096,0.0137,0.0138,0.0139,0.0122,0,0.0074,0.0105,0.011,0.0145,0.0163,0.0168,0.02,0.0217,0.0223,0.0255,0.0236,0.0263,0.0194,0.0209,0.0185,0.0161,0.015,0.0147,0.012,0.0119,0.008,0.0098,0.0131,0.0117,0.0124,0.0124,0.0125,0,0.0093,0.0115,0.0156,0.0196,0.0206,0.0232,0.0283,0.0311,0.0344,0.035,0.0352,0.0348,0.0339,0.0293,0.0235,0.0235,0.0191,0.0162,0.0161,0.0111,0.0079,0.0098,0.012,0.0128,0.0127,0.0127,0.0127,0,0.0114,0.0146,0.0186,0.0198,0.0244,0.0273,0.0304,0.0343,0.0391,0.0429,0.047,0.0435,0.0454,0.0382,0.0292,0.0275,0.0236,0.0209,0.0127,0.0123,0.0142,0.0138,0.0185,0.0185,0.0185,0.0185,0.0185,0,0.0137,0.0166,0.0201,0.0228,0.0289,0.0314,0.0393,0.0411,0.0481,0.0549,0.053,0.0567,0.0481,0.0444,0.0337,0.0228,0.0264,0.0136,0.012,0.0152,0.0149,0.0152,0.0149,0.0184,0.0184,0.0184,0.0185,0,0.0157,0.0179,0.0224,0.0278,0.0304,0.0354,0.0455,0.0507,0.0568,0.0663,0.0693,0.0687,0.062,0.0519,0.0417,0.0302,0.0203,0.0161,0.0192,0.0179,0.0073,0.0072,0.0067,0.0066,0.0064,0.0063,0.0062,0,0.0166,0.0195,0.0262,0.03,0.0328,0.041,0.047,0.0543,0.0596,0.0721,0.0756,0.0762,0.0726,0.055,0.0389,0.022,0.019,0.0128,0.0093,0.0079,0.0064,0.0064,0.0064,0.0132,0.0132,0.0132,0.0132,0,0.0186,0.0213,0.0256,0.0329,0.039,0.0469,0.0549,0.0613,0.0712,0.0785,0.0854,0.0861,0.0738,0.057,0.0355,0.0238,0.0149,0.0114,0.0123,0.0145,0.0136,0.0122,0.0121,0.013,0.013,0.013,0.013,0.013,0.0198,0.0222,0.028,0.035,0.0421,0.0501,0.0573,0.0653,0.0751,0.0848,0.086,0.0851,0.0743,0.0437,0.0286,0.0132,0.013,0.0052,0.0055,0.0058,0.0056,0.0044,0.002,0.002,0.002,0.0019,0.0019,0,0.0207,0.0234,0.0293,0.037,0.0439,0.0495,0.0605,0.0662,0.0757,0.0811,0.0851,0.071,0.0566,0.0428,0.0219,0.0079,0.0089,0.0012,0.0069,0.0072,0.0075,0.0076,0.0044,0.0043,0.0043,0.0042,0,0,0.0209,0.0256,0.0281,0.037,0.0434,0.0533,0.0604,0.0672,0.0716,0.0736,0.0729,0.0713,0.0586,0.0419,0.0271,0.0157,0.0131,0.0123,0.0121,0.021,0.0213,0.012,0.0126,0,0,0,0,0]}],[{"header":{"parameterUnit":"m.s-1","parameterCategory":2,"la1":30.2991,"la2":30.254,"lo1":-89.0895,"lo2":-89.0444,"dy":0.0017,"dx":0.0017,"nx":28,"ny":28,"refTime":"2025-12-21T03:00:00:Z","depth":"4","parameterNumber":2,"parameterNumberName":"U-component_of_CURRENTS"},"data":[0,0,0,0,0,0,0,0,0,0,0,0,0,0,0,0,0,0,0,0,0,0,0,0,0,0,0,0,0,0,0,0,0,0,0,0,0,0,0,0,0,0,0,0,0,0,0,0,0,0,0,0,0,0,0,0,0,0,0.1107,0.1107,0,0.1146,0.1146,0.1147,0.1183,0.1184,0.1184,0.1185,0.1245,0.1246,0.1247,0,0,0,0,0,0,0,0,0,0,0,0,0,0.106,0.106,0.1107,0.1107,0.1108,0.1146,0.1146,0.1147,0.1183,0.1184,0.1184,0.1185,0.1245,0.1246,0.1248,0,0,0,0,0,0,0,0,0,0,0,0,0,0.1086,0.106,0.1107,0.1131,0.1134,0.1146,0.1146,0.1147,0.1183,0.1184,0.1184,0.1185,0.1244,0.1246,0.1248,0.1241,0,0,0.1253,0.1253,0,0,0,0,0,0,0,0,0.1085,0.1088,0.1127,0.113,0.1133,0.1162,0.1152,0.118,0.1183,0.1163,0.1185,0.1186,0.1219,0.1223,0.1227,0.1244,0.1247,0.1253,0.1254,0.1255,0.1255,0,0,0,0,0,0,0,0.1083,0.1086,0.1121,0.1128,0.1131,0.114,0.1144,0.1157,0.1185,0.1165,0.1168,0.1174,0.1221,0.1225,0.1228,0.1248,0.1253,0.1254,0.1255,0.1256,0.1341,0.1342,0,0,0,0,0,0,0.108,0.1085,0.112,0.1122,0.1112,0.114,0.1145,0.115,0.1185,0.1191,0.1173,0.1175,0.1222,0.1226,0.1231,0.1291,0.1255,0.1256,0.1257,0.1339,0.1341,0.1342,0,0,0,0,0,0,0.1079,0.1083,0.1118,0.1105,0.1111,0.114,0.1146,0.1151,0.1178,0.1191,0.1198,0.1198,0.1223,0.1228,0.1264,0.1292,0.1257,0.1258,0.1338,0.134,0.1342,0.137,0,0,0,0,0,0,0.1077,0.1082,0.1096,0.1105,0.1111,0.1139,0.1145,0.1151,0.1179,0.1183,0.1214,0.1219,0.1224,0.1262,0.1266,0.1293,0.126,0.1336,0.1339,0.1341,0.1368,0.1373,0.1377,0,0,0,0,0,0.1075,0.1086,0.1097,0.1102,0.1127,0.114,0.1144,0.1167,0.118,0.1194,0.1218,0.1219,0.128,0.1264,0.1269,0.1297,0.1335,0.1338,0.1341,0.1366,0.1372,0.1377,0,0,0,0,0,0,0.1076,0.1091,0.1103,0.112,0.1137,0.1147,0.1165,0.1178,0.1207,0.122,0.1231,0.1238,0.1281,0.1285,0.1267,0.133,0.131,0.1314,0.1327,0.1333,0.1338,0.1333,0.1261,0,0,0,0,0,0.1082,0.1095,0.111,0.1127,0.1136,0.1155,0.1169,0.1184,0.1204,0.1219,0.1241,0.1268,0.1292,0.1309,0.1329,0.1359,0.1367,0.1383,0.1388,0.1392,0.1392,0.1435,0.1443,0.1352,0.1352,0.1352,0,0,0.1087,0.1098,0.1107,0.1129,0.1144,0.1159,0.1166,0.1192,0.1213,0.122,0.1265,0.1287,0.1304,0.1341,0.1361,0.1351,0.1421,0.1395,0.1399,0.1396,0.1439,0.1447,0.1455,0.1354,0.1353,0.1353,0,0,0.1093,0.1115,0.1126,0.1142,0.117,0.1179,0.1191,0.1217,0.1241,0.1277,0.1293,0.133,0.1365,0.1384,0.1396,0.1439,0.1446,0.1453,0.1474,0.1516,0.1523,0.153,0.1545,0.1553,0.1456,0.1456,0.1456,0,0.1103,0.1115,0.1132,0.1148,0.1165,0.1189,0.1206,0.1229,0.1267,0.1291,0.1299,0.1368,0.1384,0.1427,0.1444,0.145,0.1468,0.1448,0.1522,0.1529,0.1535,0.1549,0.1557,0.1457,0.1457,0.1457,0.1457,0,0.1108,0.113,0.114,0.1165,0.1186,0.1206,0.1236,0.1269,0.1301,0.1325,0.1386,0.1412,0.1453,0.1467,0.1467,0.1525,0.1521,0.1522,0.1504,0.1546,0.1558,0.1566,0.146,0.1459,0.1459,0.1458,0,0,0.1097,0.1135,0.1142,0.116,0.12,0.1215,0.1256,0.1295,0.1331,0.1378,0.1425,0.1471,0.1497,0.1512,0.1528,0.1561,0.1618,0.1564,0.1565,0.1573,0.1701,0.1578,0.1575,0.164,0.1642,0.1644,0.1688,0,0.1099,0.1126,0.1147,0.1182,0.1197,0.1237,0.1272,0.1318,0.1361,0.1414,0.1458,0.151,0.1511,0.1543,0.1577,0.1615,0.1643,0.1605,0.1664,0.1665,0.1546,0.1581,0.1649,0.1694,0.1696,0.1697,0.1698,0,0.1092,0.1114,0.1146,0.1193,0.1205,0.1236,0.13,0.1335,0.1409,0.1448,0.1507,0.1544,0.1608,0.1601,0.1683,0.1664,0.1684,0.1703,0.1705,0.1584,0.1557,0.1646,0.1713,0.1712,0.1711,0.171,0.1709,0,0.1066,0.1111,0.1139,0.1156,0.1212,0.1246,0.1283,0.1353,0.1391,0.1478,0.1517,0.1595,0.1643,0.1693,0.1729,0.1723,0.1804,0.18,0.1702,0.1693,0.1778,0.177,0.185,0.185,0.185,0.185,0.185,0,0.1046,0.1072,0.1135,0.1151,0.1192,0.1242,0.1296,0.1345,0.1422,0.146,0.1539,0.1576,0.1673,0.1724,0.175,0.1744,0.1826,0.1704,0.1699,0.1788,0.1781,0.1783,0.1775,0.1852,0.1851,0.1851,0.1851,0,0.1007,0.105,0.1085,0.1155,0.1181,0.1214,0.1294,0.1325,0.1411,0.1464,0.1496,0.1591,0.1649,0.1714,0.1791,0.1754,0.1771,0.1745,0.1825,0.1824,0.1626,0.1619,0.1644,0.164,0.1636,0.1634,0.1631,0,0.0986,0.1,0.1079,0.1102,0.1138,0.1195,0.1226,0.1312,0.134,0.1449,0.1462,0.1552,0.1599,0.1603,0.1686,0.172,0.1702,0.1697,0.1664,0.1614,0.1608,0.1606,0.1603,0.1626,0.1625,0.1624,0.1623,0,0.0939,0.0979,0.1008,0.1054,0.1095,0.1126,0.1179,0.1189,0.1276,0.1371,0.1387,0.1419,0.1472,0.1524,0.1556,0.158,0.1696,0.1662,0.1669,0.1638,0.1593,0.1589,0.1591,0.1612,0.1613,0.1614,0.1615,0,0.0907,0.0915,0.0958,0.0988,0.1033,0.1033,0.1072,0.1095,0.1133,0.1248,0.1251,0.1346,0.1441,0.1451,0.1486,0.1494,0.1478,0.1436,0.1455,0.1468,0.1392,0.1309,0.1236,0,0,0,0,0,0.0869,0.0864,0.0884,0.0905,0.0942,0.0964,0.1024,0.1063,0.1148,0.112,0.118,0.1218,0.126,0.1319,0.1296,0.1424,0.1492,0.1392,0.1454,0.1548,0.1561,0.1489,0,0,0,0,0,0,0.084,0.0859,0.0855,0.0823,0.0819,0.0842,0.0873,0.0931,0.0922,0.1022,0.1052,0.1141,0.1206,0.1255,0.127,0.129,0.1303,0.1462,0.1459,0.154,0.1552,0.1563,0.1494,0,0,0,0,0]},{"header":{"parameterUnit":"m.s-1","parameterCategory":2,"la1":30.2991,"la2":30.254,"lo1":-89.0895,"lo2":-89.0444,"dy":0.0017,"dx":0.0017,"nx":28,"ny":28,"refTime":"2025-12-21T03:00:00:Z","depth":"4","parameterNumber":3,"parameterNumberName":"V-component_of_CURRENTS"},"data":[0,0,0,0,0,0,0,0,0,0,0,0,0,0,0,0,0,0,0,0,0,0,0,0,0,0,0,0,0,0,0,0,0,0,0,0,0,0,0,0,0,0,0,0,0,0,0,0,0,0,0,0,0,0,0,0,0,0,0.0058,0.0058,0,0.0052,0.0052,0.0052,0.0042,0.0042,0.0042,0.0042,0.0028,0.0028,0.0027,0,0,0,0,0,0,0,0,0,0,0,0,0,0.006,0.006,0.0058,0.0058,0.0058,0.0052,0.0052,0.0052,0.0042,0.0042,0.0042,0.0042,0.0028,0.0028,0.0027,0,0,0,0,0,0,0,0,0,0,0,0,0,0.0057,0.006,0.0058,0.0053,0.0052,0.0052,0.0052,0.0051,0.0042,0.0042,0.0042,0.0042,0.0028,0.0028,0.0027,0.003,0,0,0.0026,0.0026,0,0,0,0,0,0,0,0,0.0057,0.0057,0.0054,0.0053,0.0053,0.0047,0.0047,0.0044,0.0042,0.0046,0.0042,0.0042,0.0034,0.0033,0.0033,0.003,0.0029,0.0026,0.0026,0.0026,0.0026,0,0,0,0,0,0,0,0.0057,0.0057,0.0056,0.0054,0.0053,0.0049,0.0049,0.0046,0.0042,0.0046,0.0045,0.0044,0.0033,0.0033,0.0032,0.0029,0.0026,0.0026,0.0026,0.0026,0.0031,0.0031,0,0,0,0,0,0,0.0058,0.0057,0.0056,0.0056,0.0054,0.0049,0.0049,0.0049,0.0042,0.004,0.0045,0.0044,0.0034,0.0032,0.0032,0.0044,0.0026,0.0026,0.0025,0.003,0.0031,0.0031,0,0,0,0,0,0,0.0058,0.0058,0.0056,0.0056,0.0056,0.005,0.0051,0.0049,0.0049,0.0041,0.0039,0.0045,0.0033,0.0032,0.0034,0.0043,0.0025,0.0025,0.003,0.003,0.0031,0.0063,0,0,0,0,0,0,0.0058,0.0058,0.0059,0.0056,0.0056,0.0059,0.0051,0.005,0.0049,0.0048,0.0041,0.0039,0.0033,0.0034,0.0034,0.0042,0.0025,0.0029,0.003,0.0031,0.0062,0.0065,0.0067,0,0,0,0,0,0.0059,0.0061,0.0059,0.0059,0.0057,0.0059,0.0059,0.0054,0.0049,0.0052,0.0048,0.0039,0.0038,0.0035,0.0033,0.0042,0.0029,0.003,0.0031,0.0061,0.0064,0.0067,0,0,0,0,0,0,0.0061,0.006,0.0058,0.006,0.0061,0.0058,0.0058,0.0055,0.0054,0.0053,0.0045,0.0043,0.0048,0.004,0.0037,0.0045,0.0031,0.0032,0.0055,0.0058,0.0061,0.0065,0.0025,0,0,0,0,0,0.0062,0.0065,0.0064,0.0066,0.0066,0.0063,0.0062,0.006,0.0059,0.0058,0.0054,0.005,0.0051,0.005,0.0048,0.0053,0.0035,0.0057,0.006,0.0062,0.0065,0.0048,0.005,0.0034,0.0034,0.0033,0,0,0.0063,0.0064,0.0064,0.0066,0.0066,0.0073,0.0062,0.0064,0.0073,0.0057,0.0067,0.006,0.0054,0.0061,0.0062,0.0055,0.0057,0.0063,0.0065,0.0066,0.0049,0.005,0.0052,0.0034,0.0034,0.0034,0,0,0.0069,0.0067,0.0073,0.0076,0.0078,0.008,0.0081,0.0081,0.0083,0.009,0.0083,0.0082,0.0081,0.0081,0.008,0.0096,0.0072,0.0094,0.0112,0.0096,0.0098,0.0098,0.0073,0.0072,0.0095,0.0095,0.0095,0,0.0069,0.0077,0.0075,0.0083,0.0089,0.0085,0.0096,0.01,0.0101,0.0105,0.0097,0.0097,0.0092,0.0102,0.0109,0.0104,0.0085,0.0101,0.01,0.0101,0.0101,0.0075,0.0073,0.0097,0.0097,0.0097,0.0096,0,0.0082,0.0089,0.0093,0.0105,0.0112,0.0119,0.0127,0.0134,0.0134,0.0135,0.0141,0.0133,0.0132,0.0132,0.0126,0.013,0.0112,0.0105,0.0092,0.0104,0.0076,0.0073,0.0099,0.0099,0.0098,0.0098,0,0,0.0081,0.0098,0.01,0.011,0.0124,0.0132,0.0152,0.0166,0.0176,0.0174,0.0183,0.0185,0.0173,0.0171,0.0162,0.0151,0.0137,0.0131,0.013,0.0107,0.0092,0.0083,0.0078,0.0128,0.0128,0.0127,0.007,0,0.0092,0.0112,0.012,0.0143,0.0155,0.0164,0.0184,0.0196,0.0201,0.0208,0.02,0.0203,0.0191,0.0189,0.0177,0.015,0.0132,0.0153,0.0083,0.008,0.0071,0.0076,0.0127,0.0067,0.0067,0.0066,0.0066,0,0.0101,0.0115,0.0138,0.0164,0.017,0.0186,0.0214,0.023,0.0241,0.0243,0.0242,0.0231,0.0224,0.0206,0.0163,0.0176,0.0136,0.011,0.0107,0.0086,0.0066,0.0053,0.006,0.0061,0.0061,0.0061,0.0062,0,0.0102,0.0128,0.0147,0.0156,0.0185,0.0201,0.0219,0.0239,0.0256,0.0263,0.0267,0.0253,0.0245,0.0203,0.0151,0.0155,0.0091,0.0088,0.0039,0.0037,0.0048,0.0048,0.0048,0.0048,0.0048,0.0048,0.0048,0,0.0108,0.0123,0.0149,0.016,0.0187,0.0206,0.0236,0.0251,0.0274,0.0295,0.0282,0.0289,0.0242,0.0203,0.0152,0.0086,0.0088,0.0042,0.0025,0.0062,0.0064,0.0045,0.0046,0.0046,0.0047,0.0047,0.0047,0,0.0101,0.0119,0.014,0.0173,0.0187,0.0205,0.025,0.0274,0.0289,0.0315,0.0319,0.0311,0.0269,0.0208,0.0136,0.0088,0.0025,-0.0004,0.0033,0.0019,-0.0019,-0.0016,-0.0056,-0.0057,-0.0058,-0.0058,-0.0059,0,0.0098,0.0109,0.0145,0.0166,0.0182,0.0215,0.0247,0.0279,0.0308,0.0332,0.0347,0.0317,0.0301,0.0193,0.0127,0.0021,0.0005,-0.0042,-0.0019,-0.0016,-0.0029,-0.0025,-0.0021,-0.006,-0.006,-0.006,-0.006,0,0.0094,0.0105,0.0128,0.017,0.0205,0.0242,0.0288,0.031,0.0351,0.0357,0.0373,0.0328,0.0276,0.0203,0.0111,0.0038,-0.0014,-0.0048,-0.0047,-0.0027,-0.0021,-0.0032,-0.0028,-0.0062,-0.0062,-0.0062,-0.0062,0,0.0092,0.0105,0.0142,0.0181,0.0222,0.027,0.0289,0.0333,0.0362,0.039,0.0392,0.0344,0.0318,0.021,0.0132,0.0055,0.0041,0.0009,0.0007,0.0009,0.0047,0.0065,0.0035,0,0,0,0,0,0.0099,0.0125,0.0157,0.0205,0.0245,0.0273,0.0325,0.0346,0.0376,0.0391,0.0396,0.0353,0.0256,0.0218,0.0142,0.0114,0.0018,0.0019,-0.0022,-0.0075,-0.0072,-0.0039,0,0,0,0,0,0,0.0108,0.014,0.0159,0.0222,0.0256,0.0308,0.034,0.0361,0.0373,0.0389,0.0344,0.032,0.023,0.03,0.0137,0.0114,0.0074,-0.0025,-0.0027,-0.0076,-0.0074,-0.0072,-0.0036,0,0,0,0,0]}]]